Regional Weather Roundup
Issued by NWS

Home | Current Version | Previous Version | Graphics & Text | Print | Product List | Glossary On
Versions: 1 2 3 4 5 6 7 8 9 10 11 12 13 14 15 16 17 18 19 20 21 22 23 24 25 26 27 28 29 30 31 32 33 34 35 36 37 38 39 40 41 42 43 44 45 46 47 48 49 50
000
ASUS43 KIND 171859
RWRIN

WEATHER ROUNDUP FOR INDIANA
NATIONAL WEATHER SERVICE INDIANAPOLIS IN
200 PM EST WED JAN 17 2018

NOTE: "FAIR" INDICATES FEW OR NO CLOUDS BELOW 12,000 FEET WITH NO
SIGNIFICANT WEATHER AND/OR OBSTRUCTIONS TO VISIBILITY.

* - STATION DOES NOT REPORT WEATHER SUCH AS PRECIPITATION OR FOG.

+ - STATION NOT QUALITY CONTROLLED BY THE NATIONAL WEATHER SERVICE.
    USE DATA WITH CAUTION...ESPECIALLY DEWPOINT AND RELATIVE
    HUMIDITY OBSERVATIONS.

INZ001>003-010>013-019-020-172000-
NORTHWEST INDIANA

CITY           SKY/WX    TMP DP  RH WIND       PRES   REMARKS
GARY /AIRPORT/ MOSUNNY   21   9  58 SW14      30.48F WCI   8
KNOX *+        FAIR      14   9  79 W13       30.49F WCI   0
MICHIGAN CITY+ FAIR      23  12  63 SW12      30.46F WCI  12
MONTICELLO +   FAIR      11   4  75 W9        30.53F WCI  -2

$$

LMZ046-743>745-172000-
SOUTHERN LAKE MICHIGAN

STATION/POSITION TIME  TEMP    WIND        PRES    WAVE
                       AIR SEA DIR/SP/G            HT
                 (UTC) (F)     (DEG/KT/KT) (MB)    (FT)
BURNS HARBOR     1840   21     250/ 11/ 14 1032.2F
MICHIGAN CITY    1830   19     220/ 16/ 19   N/A

$$

INZ004-005-014>016-021>024-172000-
NORTH CENTRAL INDIANA

CITY           SKY/WX    TMP DP  RH WIND       PRES   REMARKS
ELKHART        FAIR      19  10  68 W12       30.43F WCI   7
GOSHEN         FAIR      17   9  70 W15       30.44F WCI   2
PERU/GRISSOM   FAIR      13   8  83 W13       30.49F WCI  -2
SOUTH BEND     FAIR      17   8  67 SW13      30.44F WCI   4

$$

INZ006>009-017-018-025>027-172000-
NORTHEAST INDIANA

CITY           SKY/WX    TMP DP  RH WIND       PRES   REMARKS
FORT WAYNE     FAIR      18  10  71 SW12      30.47F WCI   5
KENDALLVILLE + FAIR      20  11  66 W15       30.42F WCI   7

$$

INZ028-029-035-036-043>045-051>053-172000-
WEST CENTRAL INDIANA

CITY           SKY/WX    TMP DP  RH WIND       PRES   REMARKS
GREENCASTLE +  FAIR      18   7  62 CALM      30.55F
LAFAYETTE      FAIR      14   7  73 SW9       30.54F WCI   2
TERRE HAUTE    FAIR      14   4  64 W7        30.59F WCI   4

$$

INZ030>032-037>040-046>048-054>057-064-065-172000-
CENTRAL INDIANA

CITY           SKY/WX    TMP DP  RH WIND       PRES   REMARKS
ANDERSON       SUNNY     16   9  73 CALM      30.50F
COLUMBUS       SUNNY     18   7  62 E5        30.56F WCI  11
GREENWOOD *+   FAIR      19   9  66 W7        30.54F WCI   9
INDIANAPOLIS   FAIR      14   6  70 SW9       30.54F WCI   2
-EAGLE CREEK   FAIR      17   8  67 W7        30.52F WCI   8
MT COMFORT *+  FAIR      18  12  79 SW6       30.52F WCI   9
SHELBYVILLE    FAIR      13   5  70 SW8       30.54F WCI   2

$$

INZ033-034-041-042-049-050-058-059-172000-
EAST CENTRAL INDIANA

CITY           SKY/WX    TMP DP  RH WIND       PRES   REMARKS
MUNCIE         FAIR      17   8  67 W8        30.49F WCI   7
RICHMOND +     FAIR      14   9  79 SW9       30.49F WCI   2

$$

INZ060-061-067>069-081>083-085>088-172000-
SOUTHWEST INDIANA

CITY           SKY/WX    TMP DP  RH WIND       PRES   REMARKS
EVANSVILLE     FAIR      15   6  67 CALM      30.65F
HUNTINGBURG +  FAIR      29  13  51 SE5       30.63F WCI  24

$$

INZ062-063-066-070>080-084-089>092-172000-
SOUTH CENTRAL AND SOUTHEAST INDIANA

CITY           SKY/WX    TMP DP  RH WIND       PRES   REMARKS
BLOOMINGTON    FAIR      17   7  64 W7        30.55F WCI   8
FRENCH LICK *+ FAIR      18   3  53 CALM      30.58F
MADISON *+     CLOUDY    18   9  68 W5        30.58F WCI  11
SEYMOUR +      FAIR      18   7  62 S5        30.58F WCI  11

$$




USA.gov is the U.S. government's official web portal to all federal, state and local government web resources and services.